Wind_Speed
42 45 48 51 55 58 61 63 65 67 69 69 70 69 68 67 66 64 63 63 63 62 62 61 61 61 61 59 59 58 57 57 59 60 60 61 62 63 64 64 64 65 66
40 43 46 49 51 54 56 58 60 62 63 64 65 65 65 64 63 62 61 60 60 61 61 61 61 61 61 60 59 58 58 59 60 61 62 63 64 65 66 67 67 67 68
38 40 42 44 46 47 47 48 50 51 52 54 56 57 57 57 57 57 56 55 55 56 57 58 59 59 59 59 58 58 58 59 60 63 64 64 65 67 67 67 68 68 69
34 35 38 40 41 41 40 39 38 39 40 42 45 47 47 48 48 49 48 48 48 49 50 52 53 54 55 55 56 56 58 59 61 63 64 65 66 66 67 67 67 68 70
30 31 33 35 35 34 32 30 29 29 31 33 34 35 36 37 39 39 40 40 41 42 43 45 47 49 49 50 53 55 56 59 60 63 64 64 65 66 66 66 68 69 71
26 27 27 28 28 28 26 24 23 22 22 23 25 25 26 28 29 30 31 33 34 36 38 39 42 44 44 48 50 52 55 58 60 61 61 63 64 65 66 68 69 71 72
22 23 23 23 23 22 21 20 19 17 16 16 16 17 18 19 20 22 24 26 28 30 33 36 39 40 43 46 49 52 54 55 56 57 59 61 63 65 67 68 70 71 71
19 19 20 20 19 19 17 16 15 13 12 10 10 11 12 13 15 17 20 22 24 27 30 34 36 38 41 44 46 48 50 52 54 57 59 61 63 65 66 67 68 67 67
16 17 17 17 16 16 15 14 12 11 8 6 6 8 9 11 13 15 17 20 23 26 28 31 33 36 38 41 44 46 50 53 55 57 59 61 63 63 63 63 63 62 61
14 15 15 15 15 14 14 13 12 11 8 6 5 5 6 7 10 12 15 17 20 22 25 28 32 35 38 41 44 47 50 53 55 56 58 59 59 59 59 58 56 54 52
13 13 13 14 14 14 13 13 13 11 10 8 6 6 6 7 9 12 14 17 19 22 25 29 33 36 39 42 45 48 50 52 54 55 56 57 56 55 54 52 50 47 45
12 13 13 13 14 13 13 13 12 11 10 9 8 8 9 10 11 13 16 19 22 25 28 31 34 38 41 44 47 49 50 52 54 55 55 54 53 51 49 46 44 41 40
12 13 13 14 14 14 13 12 11 11 10 10 11 11 12 13 15 17 19 22 25 28 31 34 37 40 43 46 48 50 51 53 54 54 53 52 50 47 45 42 40 38 38
13 13 14 14 14 14 13 13 12 12 12 12 13 14 15 17 19 21 23 25 28 31 33 36 40 43 46 47 49 51 53 54 53 51 49 47 45 43 40 38 37 36 36
14 14 14 14 14 14 14 13 13 14 14 15 16 17 19 20 22 24 27 29 31 34 37 40 43 46 48 49 51 52 52 51 49 47 45 42 40 38 36 35 34 34 34
15 15 15 15 15 15 15 15 15 16 17 18 19 21 22 24 26 28 30 32 34 37 39 42 45 47 49 50 51 50 49 47 44 42 40 38 36 35 34 33 33 33 34
16 16 16 16 16 16 16 17 18 19 20 21 22 24 25 27 29 31 32 34 37 39 42 44 47 48 49 50 49 47 45 42 40 38 36 35 34 33 33 33 34 34 34
18 18 18 18 18 18 18 19 20 21 22 23 25 27 28 29 31 33 35 37 39 41 44 46 48 49 49 48 46 44 41 39 37 36 34 34 33 33 33 34 34 35 35
19 19 19 19 19 20 20 21 22 23 25 26 27 29 30 32 33 35 37 39 41 43 46 48 49 49 47 46 44 41 39 37 36 35 34 34 33 34 34 35 35 35 35
21 21 21 21 21 22 22 23 24 25 27 28 29 31 32 34 35 37 39 41 43 45 47 49 49 47 45 44 41 39 38 37 35 35 34 34 34 35 35 36 36 36 36
22 22 22 22 22 23 24 25 26 27 28 30 31 33 34 35 37 39 41 42 45 47 48 49 48 46 45 43 41 39 37 36 35 35 35 35 36 36 36 37 37 37 36
23 23 23 23 23 24 25 26 27 28 30 31 33 34 35 37 38 40 42 44 46 48 49 49 48 46 44 42 40 39 38 37 36 36 36 36 37 37 37 38 38 37 37
24 24 24 24 25 25 26 27 28 29 31 32 34 35 37 38 40 41 43 45 48 49 50 49 47 46 44 42 40 39 38 38 37 37 37 37 37 38 38 38 37 37 36
25 25 25 25 26 26 27 28 29 30 32 33 35 36 38 39 40 42 44 47 49 50 50 49 47 45 43 42 40 39 39 38 37 37 37 37 36 37 37 36 36 35 34
26 26 26 26 26 26 27 28 30 31 33 34 36 37 39 40 41 43 46 48 50 50 50 48 46 44 43 41 40 39 38 38 37 37 36 35 34 35 35 34 33 33 32
26 26 26 26 26 27 28 29 31 32 33 35 36 38 40 41 43 45 47 49 50 51 50 48 46 43 41 40 39 38 37 37 36 36 34 33 32 32 32 31 31 31 30
Wind_Direction
285 287 287 288 287 286 283 280 275 272 269 266 263 261 260 258 256 255 255 256 257 259 261 262 264 267 269 271 273 275 276 278 279 280 280 281 283 284 285 286 286 286 286
289 291 292 293 293 292 287 282 278 274 270 266 263 261 259 258 257 256 255 255 256 257 259 262 264 266 268 270 273 275 276 277 278 279 281 283 284 285 286 287 288 288 289
295 297 300 301 302 300 294 288 282 277 272 267 263 260 259 258 257 256 256 255 255 256 258 260 263 265 268 270 272 274 275 276 277 279 281 283 285 287 288 288 289 290 291
301 303 306 308 309 307 301 294 288 280 274 268 263 260 258 256 255 255 255 255 255 256 258 260 262 265 267 270 272 272 275 276 278 280 282 285 287 288 289 290 291 291 291
308 310 311 314 314 313 309 301 292 284 275 270 264 259 256 254 252 252 252 253 254 255 257 260 262 265 268 270 272 274 275 277 280 282 285 286 287 289 291 292 292 292 292
315 317 318 321 320 319 316 310 301 290 280 272 264 257 252 251 250 248 248 250 252 255 257 259 263 266 268 271 273 274 276 279 281 284 286 288 290 292 293 293 293 293 293
320 323 325 326 327 327 324 321 315 303 289 275 262 252 247 245 246 247 247 250 251 254 257 261 265 266 269 273 276 279 282 284 286 289 290 292 293 294 294 294 295 295 294
322 327 331 333 333 332 332 333 333 322 303 286 267 252 244 237 238 244 245 249 253 258 262 266 268 270 274 278 282 285 288 290 292 293 295 296 296 296 296 296 296 295 295
320 328 333 338 341 343 342 342 343 343 335 316 292 255 245 243 247 251 253 256 259 262 266 271 275 280 283 286 289 292 294 296 297 298 298 298 298 298 298 298 297 296 295
319 327 333 338 342 348 353 356 356 357 356 345 328 290 272 266 263 263 265 267 270 272 278 282 285 288 290 293 296 298 299 300 300 300 300 300 300 300 300 299 298 298 297
325 330 335 340 341 343 347 351 354 354 354 350 337 321 304 293 282 279 282 284 284 286 289 291 293 295 296 298 300 301 302 302 302 302 302 303 303 303 302 300 300 300 300
328 333 336 339 342 344 345 344 345 346 345 344 337 326 317 311 304 299 297 296 295 295 296 297 299 300 302 303 304 304 304 304 304 304 304 304 305 305 304 303 303 303 302
324 328 331 334 338 340 340 340 340 340 337 333 328 322 316 312 308 305 303 302 301 301 301 302 303 305 306 307 307 306 306 306 305 305 304 305 305 305 305 305 305 305 305
318 321 324 327 329 330 331 330 330 329 327 324 321 318 315 312 309 307 305 304 305 305 305 306 307 309 310 309 308 307 307 307 306 305 304 305 305 305 305 305 305 306 307
312 315 317 320 321 322 322 322 321 320 319 318 316 315 313 312 311 309 308 308 308 309 309 310 311 312 311 310 309 308 308 307 305 305 304 305 305 306 307 307 307 306 307
305 309 312 314 315 316 317 317 316 316 317 316 315 315 314 314 312 311 311 310 310 311 311 312 313 313 313 312 311 310 309 308 306 306 305 305 305 306 307 308 308 307 309
300 303 307 310 312 313 314 315 315 315 316 316 315 315 314 314 313 312 311 311 312 313 313 314 314 315 314 313 312 311 310 309 308 307 306 306 305 305 306 307 307 308 309
297 300 303 306 308 310 312 313 314 314 314 314 314 314 313 313 313 313 313 313 314 315 315 316 316 316 315 314 313 312 311 310 308 307 305 305 305 305 305 306 307 308 308
294 297 299 301 304 307 309 311 312 313 313 313 314 314 314 314 314 314 314 315 316 317 318 318 318 317 315 314 313 312 310 309 307 306 305 304 304 305 305 306 307 308 308
291 293 295 298 301 304 307 309 311 311 312 313 314 315 315 315 315 316 316 317 318 319 319 320 319 318 316 314 313 311 309 307 306 305 304 304 304 305 305 306 307 308 308
288 291 293 296 299 301 304 307 309 311 312 314 315 316 316 316 316 317 318 319 320 320 321 321 320 318 316 314 312 309 308 306 305 304 304 304 304 305 306 307 307 307 307
286 289 291 294 297 299 302 305 308 311 312 314 315 316 316 316 317 318 319 320 321 322 322 322 320 319 317 314 312 309 307 305 304 304 304 304 304 305 305 306 307 307 307
285 287 290 292 295 298 302 305 308 311 313 314 316 316 317 317 318 319 320 322 323 324 323 322 321 319 316 313 311 308 307 306 305 304 304 303 304 305 306 307 307 306 306
285 287 289 291 294 298 301 305 308 311 313 314 316 317 317 318 319 320 322 323 324 324 324 323 321 319 317 314 311 309 308 307 306 306 305 304 304 305 306 307 307 307 306
283 285 287 290 294 299 302 306 309 312 314 315 316 317 318 319 320 321 323 324 325 325 324 323 321 319 317 315 312 310 309 308 308 308 307 306 305 306 307 308 308 308 308
281 283 287 291 295 299 303 306 309 312 314 315 317 318 319 320 321 323 324 325 326 326 325 323 321 319 317 315 314 312 310 309 309 310 310 309 308 309 309 309 309 309 309
Height
5690 5686 5682 5676 5670 5664 5657 5651 5646 5643 5640 5640 5640 5643 5646 5650 5655 5659 5663 5667 5670 5673 5675 5677 5678 5679 5679 5679 5678 5677 5675 5673 5669 5665 5661 5657 5654 5650 5646 5643 5639 5636 5632
5680 5675 5669 5662 5654 5646 5638 5632 5626 5622 5619 5619 5620 5623 5627 5631 5636 5641 5647 5651 5655 5659 5661 5663 5664 5665 5666 5666 5665 5663 5661 5658 5655 5651 5646 5642 5638 5634 5630 5626 5621 5617 5612
5669 5663 5656 5648 5640 5631 5622 5615 5609 5604 5602 5602 5603 5606 5610 5615 5620 5625 5631 5636 5640 5644 5647 5650 5651 5652 5652 5652 5651 5649 5646 5644 5640 5636 5631 5627 5622 5617 5613 5608 5603 5598 5592
5658 5652 5645 5637 5628 5619 5610 5602 5596 5592 5590 5589 5590 5592 5596 5601 5606 5611 5616 5622 5627 5631 5634 5636 5638 5639 5639 5638 5637 5635 5632 5629 5625 5621 5616 5611 5606 5601 5596 5591 5585 5579 5573
5650 5643 5636 5628 5619 5610 5602 5594 5589 5584 5581 5580 5581 5582 5585 5590 5595 5599 5605 5610 5615 5619 5622 5624 5625 5626 5626 5625 5623 5621 5618 5615 5610 5606 5601 5595 5590 5584 5579 5573 5567 5560 5553
5642 5636 5629 5621 5613 5605 5597 5590 5584 5580 5577 5575 5575 5576 5579 5583 5587 5591 5596 5601 5605 5608 5611 5613 5614 5614 5613 5612 5610 5608 5604 5600 5596 5591 5585 5580 5573 5567 5561 5554 5547 5540 5533
5636 5630 5624 5617 5610 5602 5595 5589 5583 5578 5575 5573 5572 5573 5575 5578 5582 5586 5590 5593 5597 5600 5602 5603 5604 5603 5603 5601 5598 5594 5590 5586 5581 5576 5570 5564 5557 5550 5543 5535 5527 5519 5510
5631 5626 5620 5614 5607 5601 5594 5589 5583 5578 5575 5573 5572 5572 5574 5577 5579 5582 5585 5588 5591 5593 5594 5595 5594 5593 5592 5589 5586 5582 5577 5572 5567 5561 5555 5547 5540 5532 5524 5516 5508 5499 5490
5627 5622 5617 5611 5606 5600 5594 5589 5584 5580 5577 5574 5573 5573 5574 5576 5578 5580 5582 5584 5586 5587 5587 5587 5586 5584 5582 5579 5574 5569 5564 5558 5551 5544 5538 5530 5522 5514 5505 5498 5489 5482 5474
5623 5619 5614 5610 5605 5600 5595 5590 5586 5582 5579 5577 5575 5575 5575 5576 5577 5578 5579 5580 5581 5581 5580 5579 5577 5574 5571 5567 5562 5556 5550 5543 5536 5529 5521 5513 5505 5497 5488 5481 5473 5465 5457
5620 5616 5612 5608 5604 5599 5595 5591 5587 5584 5581 5579 5577 5576 5576 5576 5576 5577 5577 5576 5576 5575 5573 5571 5568 5565 5561 5556 5550 5543 5536 5529 5521 5513 5505 5497 5489 5481 5472 5465 5458 5450 5444
5617 5614 5610 5607 5603 5599 5595 5591 5588 5585 5583 5580 5579 5577 5576 5576 5575 5574 5573 5572 5570 5568 5566 5563 5559 5555 5549 5543 5537 5529 5522 5514 5506 5498 5489 5481 5473 5465 5458 5451 5444 5437 5431
5615 5612 5609 5605 5601 5598 5595 5591 5588 5586 5583 5581 5579 5577 5576 5574 5572 5571 5569 5567 5564 5561 5558 5554 5549 5543 5537 5530 5523 5515 5508 5499 5491 5483 5474 5467 5459 5452 5445 5438 5432 5426 5420
5612 5609 5606 5603 5600 5597 5594 5591 5588 5585 5582 5580 5578 5576 5573 5571 5569 5566 5563 5561 5557 5553 5549 5544 5538 5532 5525 5518 5510 5502 5494 5485 5477 5469 5461 5453 5446 5440 5434 5428 5422 5417 5412
5609 5607 5604 5601 5598 5595 5592 5589 5586 5583 5580 5578 5575 5572 5570 5567 5564 5561 5557 5553 5549 5545 5539 5534 5527 5520 5513 5505 5497 5489 5480 5471 5463 5455 5448 5442 5435 5429 5423 5418 5413 5408 5403
5606 5603 5601 5598 5595 5592 5589 5586 5583 5580 5577 5574 5571 5568 5565 5562 5558 5554 5550 5546 5541 5535 5529 5523 5516 5508 5500 5492 5484 5475 5466 5458 5451 5444 5437 5431 5425 5419 5414 5409 5405 5400 5395
5602 5600 5597 5594 5591 5588 5585 5582 5579 5576 5573 5569 5566 5563 5559 5555 5551 5547 5542 5537 5532 5526 5519 5512 5504 5496 5487 5479 5470 5461 5453 5446 5439 5433 5427 5421 5416 5411 5406 5401 5396 5391 5386
5598 5595 5592 5589 5587 5583 5580 5577 5574 5571 5568 5564 5561 5557 5553 5549 5544 5539 5534 5528 5522 5516 5508 5501 5492 5484 5475 5466 5457 5449 5442 5435 5429 5423 5418 5412 5407 5402 5397 5392 5387 5382 5377
5592 5590 5587 5584 5582 5578 5575 5572 5569 5566 5562 5558 5555 5550 5546 5541 5536 5531 5525 5519 5512 5505 5497 5489 5480 5471 5462 5454 5446 5439 5432 5426 5420 5414 5409 5404 5399 5394 5389 5383 5378 5373 5368
5586 5584 5581 5579 5576 5573 5570 5567 5563 5560 5556 5552 5548 5543 5539 5533 5528 5522 5516 5509 5502 5494 5486 5478 5469 5460 5451 5443 5436 5429 5422 5416 5411 5405 5400 5395 5390 5385 5379 5374 5369 5364 5359
5580 5577 5575 5572 5570 5567 5564 5560 5557 5553 5549 5545 5541 5536 5531 5525 5520 5513 5507 5500 5492 5484 5475 5466 5457 5449 5440 5433 5426 5419 5413 5407 5402 5396 5391 5385 5380 5375 5370 5365 5359 5354 5349
5573 5571 5568 5566 5563 5560 5557 5554 5550 5546 5542 5538 5533 5528 5523 5517 5511 5504 5497 5490 5482 5473 5464 5455 5446 5438 5430 5422 5415 5409 5403 5397 5392 5386 5381 5376 5370 5365 5360 5355 5350 5344 5339
5566 5564 5561 5559 5556 5553 5550 5547 5543 5539 5535 5530 5525 5520 5514 5508 5502 5495 5488 5480 5471 5462 5453 5444 5435 5427 5419 5412 5405 5399 5393 5387 5381 5376 5371 5366 5360 5355 5350 5345 5340 5334 5329
5559 5556 5554 5552 5549 5546 5543 5539 5535 5531 5527 5522 5517 5512 5506 5499 5493 5486 5478 5470 5461 5452 5443 5433 5425 5416 5408 5401 5394 5388 5382 5376 5371 5365 5360 5355 5350 5345 5340 5335 5330 5325 5320
5551 5549 5546 5544 5541 5538 5535 5532 5528 5524 5519 5514 5509 5503 5497 5490 5483 5476 5468 5460 5451 5441 5432 5423 5414 5406 5398 5391 5384 5378 5372 5366 5360 5355 5350 5345 5340 5335 5330 5326 5321 5316 5311
5543 5541 5539 5536 5534 5531 5528 5524 5520 5516 5511 5506 5500 5494 5488 5481 5474 5466 5458 5449 5440 5431 5422 5413 5404 5396 5388 5381 5374 5368 5362 5356 5350 5345 5340 5335 5331 5326 5321 5317 5312 5307 5303